sat.trackr.live / text

‹ back to catalog

TEVEL2-3

NORAD 63218 · 2025-052J

PAYLOAD ACTIVE UNKNOWN

§ Identity

Operator
Country
ISRA
Launch date
2025-03-15
Launch site
AFWTR
Launch vehicle
Mass (kg)
RCS (m²)

Purposes: comms

External: N2YO · Heavens-Above · Gunter

§ Orbital elements

Epoch: 2026-09-19T11:25:46.517376Z

Period
93.70 min
Inclination
97.3733°
Eccentricity
0.0003969
Mean motion
15.36851694 rev/d
Perigee alt
452.7 km
Apogee alt
458.1 km
Semi-major
6,833.6 km
B*
3.8124e-4
RAAN
158.6068°
Arg perigee
121.0354°
Mean anomaly
239.1280°
Rev number
8,456

§ Raw data

TEVEL2-31 63218U 25052J   26262.47623284  .00013663  00000+0  38124-3 0  99972 63218  97.3733 158.6068 0003969 121.0354 239.1280 15.36851694 84567

JSON: /api/v1/satellites/63218 · /tle

For live sub-satellite position, see the globe view (requires WebGL).

§ Visibility from observer

Set your observer location to see the next 7 days of passes ≥ 10°. The values pass through the URL so the page stays shareable.

No JS? Fill the form by hand. The geolocation button needs JavaScript.

§ Radio — SatNOGS DB

ModeDescriptionDownlinkUplink
BPSK Mode U - BPSK9k6 G3RUH - Beacon 436.400 MHz
FM Mode V/U - FM Transponder 436.400 MHz 145.970 MHz

2 transmitters · refreshed weekly from db.satnogs.org